Погода в Сыктывкаре

Поиск расширенной информации на нашем сайте:

Полезная информация:

Новости сайта



02.01.2020
Опубликован Долгосрочный прогноз погоды по городам России и ближнего зарубежья на январь 2020 года.
Карты: Прогноз на январь и февраль 2020 года, Сравнение прогнозируемой аномалии приземной температуры воздуха на январь 2020 года по разным моделям.




Погода в Сыктывкаре - сегодня

Время (UTC), дата Ветер
(°,м/с) 
Видим.   Явления Облачность Т
(°С)
Тd
(°С)
f(%) Тe
(°С)
Pmin
(гПа)
dP
(гПа)
Po
(мм)
O2
(г/м3)
Тmin Tmax R s Состояние
почвы
15 29.11.20 180 (Ю) 4000 м  слаб. снег  10/0 средняя, верхняя 
[As op|Cs]
-13.9 -15.2 90 -16  1047.4  -0.3  774  330    -13.6       
18 29.11.20 170 (Ю) 4000 м  слаб. снег  10/9 100 м средняя 
[Frnb|As op]
-12.6 -13.8 91 -13  1047.1  -0.2  773  328           
21 29.11.20 200 (Ю) 10 км  {снег}  10/10 100 м 
[St]
-10 -10.9 93 -12  1046.3  -0.6  773  324           
00 30.11.20 200 (Ю) 10 км  {снег}  10/8 270 м средняя 
[Frnb|As op]
-8 -8.7 95 -10  1045.6  -0.6  773  322           
03 30.11.20 180 (Ю) 10 км    10/10 210 м 
[Frnb]
-6.8 -7.3 96 -8  1044.8  -0.7  772  320  -14.1    0.3  11  равномерный
сухой снег
100% 
06 30.11.20 190 (Ю) 10 км    10/10 240 м 
[Frnb]
-6.2 -6.7 96 -8  1044.6  -0.2  772  319           
09 30.11.20 190 (Ю) 10 км  {снег}  10/10 240 м 
[Frnb]
-5 -5.8 94 -6  1044.2  -0.3  772  317           
12 30.11.20 190 (Ю) 10 км  {снег}  10/0 средняя 
[Ac und]
-4.1 -4.9 94 -5  1043.2  -1  771  316           
15 30.11.20 200 (Ю) 10 км    10/0 средняя 
[Ac As]
-3.3 -4.3 93 -4  1042.1  -1  770  315    -3.3       
18 30.11.20 180 (Ю) 10 км    9/8 270 м средняя 
[Frnb|Ac trans]
-3.3 -4.2 93 -5  1040.8  -1.2  769  314           
21 30.11.20 190 (Ю) 10 км    10/10 270 м 
[Frnb]
-4.1 -5.5 90 -6  1039.5  -1.3  768  315           
00 01.12.20 200 (Ю) 3{10}  10 км    10/10 360 м 
[Sc]
-3.9 -5.7 87 -6  1038.5  -1  767  314           
03 01.12.20 200 (Ю) 3{10}  10 км    8/0 средняя 
[Ac trans]
-5 -6.7 88 -7  1037.7  -0.8  767  316  -5      10  равномерный
сухой снег
100% 
06 01.12.20 200 (Ю) 10 км    10/0 верхняя 
[Ci fib]
-5.7 -7.7 86 -9  1037.5  -0.2  767  316  -5.7         
09 01.12.20 200 (Ю) 10 км    8/0 верхняя 
[Ci fib]
-4.8 -8.4 76 -7  1037.2  -0.3  767  315           
12 01.12.20 200 (Ю) 10 км    10/0 верхняя 
[Cs]
-4.9 -8.5 76 -8  1036.4  -0.8  766  315           
15 01.12.20 200 (Ю) 10 км    8/0 верхняя 
[Cc]
-5.5 -8.3 81 -8  1035.8  -0.6  765  316           
18 01.12.20 210 (ЮЗ) 4{10}  10 км    10/0 верхняя 
[Ci fib]
-5.8 -8.6 81 -9  1035.6  -0.2  765  316           
21 01.12.20 210 (ЮЗ) 10 км    10/0 верхняя 
[Ci fib]
-6.6 -9 83 -9  1035.9  0.3  766  317           
00 02.12.20 210 (ЮЗ) 10 км    10/8 450 м средняя 
[Sc|As trans]
-6.8 -9.1 84 -9  1035.8  -0.2  765  317           
03 02.12.20 210 (ЮЗ) 4000 м  слаб. снег  10/3 600 м средняя 
[Sc|As op]
-7.1 -9 86 -11  1035.7  0.1  765  318  -7.1         
06 02.12.20 210 (ЮЗ) 10 км  {снег}  10/8 420 м средняя 
[Sc|As op]
-7.4 -9.4 86 -10  1035.8  765  318  -7.4         
09 02.12.20 220 (ЮЗ) 10 км    10/6 420 м средняя 
[Sc|Ac und]
-7.2 -7.4 98 -10  1035.6  765  318           
12 02.12.20 210 (ЮЗ) 4000 м  слаб. снег  10/8 400 м средняя 
[Sc|Ac und]
-7.2 -7.2 100 -9  1035.9  0.3  765  318           
15 02.12.20 210 (ЮЗ) 4000 м  слаб. снег{дождь} [диам. гололёда 0 мм]  10/8 300 м средняя 
[Sc|As op]
-7.2 -7.7 96 -10  1036  0.2  766  318    -5.7  0.0     
Время (UTC), дата Ветер
(°,м/с) 
Видим.   Явления Облачность Т
(°С)
Тd
(°С)
f(%) Тe
(°С)
Pmin
(гПа)
dP
(гПа)
Po
(мм)
O2
(г/м3)
Тmin Tmax R s Состояние
почвы

Для получения пояснительной информации подведите курсор к названию столбца.

ПОГОДА в Сыктывкаре - архив

Всё, что Вы хотите узнать о погоде в Сыктывкаре - удобно и подробно!

Выберите нужную дату (начиная с 1 января 2019* года) и нажмите кнопку "Найти".
Будут отображены архивные сводки погоды по пункту Сыктывкар, начиная с указанной даты.


Отображать данные в формате CSV (для использования в таблицах Excel)


Внимание! Наш архив погоды предназначен исключительно для личного некоммерческого использования в познавательных целях. Если Вам необходимы официальные справки о состоянии погоды (для производственных, юридических, коммерческих и т.п. целей), обращайтесь в органы Росгидромета.

*Примечание: данная дата относится к архиву по метеостанциям СССР (Россия, СНГ, Балтия).
Архив по метеостанциям Зарубежной Европы и Азии (кроме Китая) хранится 10 дней, по другим регионам земного шара (Китай, Африка, Америка, Австралия, Океания) - 1 день.

Сыктывкар - район местоположения метеостанции


Название, широта, долгота, высота метеостанции:
Сыктывкар (город) 61.7°ш. 50.8°д. 104 м над ур. моря [Российская Федерация]

Дополнительная информация

В oтличие oт бoльшинства пoгoдных сайтoв мы публикуем пoдрoбную метеoинфoрмацию в детальнoм прoфессиoнальнoм фoрмате.

Характеристики температуры и влажнoсти вoздуха измеряются на высoте 2 м в тени вдали oт зданий и деревьев.
Скoрoсть ветра измеряется на высoте 10 м (на урoвне рoста челoвека скoрoсть ветра ниже в 1.5-2 раза). Если метеoстанция нахoдится в гoрoде или в лесу, тo скoрoсть ветра занижена на 2-4 м/с пo сравнению с oткрытым местoм. Скoрoсть ветра над акватoриями крупных рек и oзёр, а также на вершинах хoлмoв на 2-5 м/с выше, чем в oбычных услoвиях.
Атмoсфернoе давление в разных тoчках местнoсти мoжет значительнo oтличаться oт давления на метеoстанции, в зависимoсти oт услoвий рельефа (при пoдъёме на 10 м давление пoнижается примернo на 1 мм рт.ст.).